Location: Avully
(45.9633°N, 6.0228°E)
Time: 14:17:42
(UTC+00:00)

Cosmos 381 Rocket - Pass Details

Date: 23 May 2024
Orbit: 955 x 995 km, 74.0° (Epoch: 18 June)

Event Time Altitude Azimuth Distance (km) Brightness Sun altitude
Rises 00:30:20 0° 336° (NNW) 3,722 8.4 -22.1°
Reaches altitude 10° 00:32:54 10° 335° (NNW) 2,768 7.5 -22.0°
Maximum altitude 00:39:19 75° 252° (WSW) 1,025 4.4 -21.7°
Enters shadow 00:41:55 38° 175° (S) 1,460 4.9 -21.6°
